Weather in Bekovo

Russia / Kemerovo Oblast     54°21′59″N   86°11′31″E
temp.,
°C
wind,
m/s
gust,
m/s
humid.,
%
clouds,
%
prec.,
mm/h
press.,
hPa
HPBL,
m
7 july, thu
thu701:00+14sw249380 0.1 1005222
04:00+13wsw3793100 0.0 1006288
07:00+13wsw3693100 0.0 1008274
10:00+16w4481100 0.1 1009647
13:00+19wnw4469100 0.1 10101060
16:00+21nw3364100 0.1 10101268
19:00+19wnw348293 1.0 1011473
22:00+15sw118983 0.8 101211
8 july, fri
fri801:00+14s229352 0.8 101217
04:00+13s119398 0.0 101111
07:00+15e119299 0.3 101287
10:00+18e2284100 0.0 1012475
13:00+20ne3374100 0.0 1012872
16:00+22nne346312 0.0 10111207
19:00+21nne35756 0.4 1010498
22:00+16n22845 0.2 101119
9 july, sat
sat901:00+13n11890 0.2 101011
04:00+12nnw22914 0.0 101019
07:00+14nnw22865 0.0 101082
10:00+19nne2271100 0.0 1010411
13:00+23nne346024 0.0 1010980
16:00+24n565193 0.0 10091441
19:00+22n51165100 0.0 1009636
22:00+16nne3128013 0.0 1010263
10 july, sun
sun1001:00+14n11855 0.0 101113
04:00+13nnw119088 0.0 101012
07:00+15nw248622 0.0 1011122
10:00+21nne46685 0.0 1011634
13:00+24ne56535 0.0 10111703
16:00+26nne58465 0.0 10101829
19:00+25n36650 0.0 1010447
22:00+19n228472 0.0 101114
11 july, mon
mon1101:00+17nnw228713 0.0 101215
04:00+16nw119123 0.0 101111
07:00+18nnw239174 0.4 1012132
10:00+22n45787 0.0 1011560
13:00+24n567336 0.6 10111172
16:00+26nnw56590 1.3 10111295
19:00+23n710720 1.3 1011754
22:00+17nnw410870 0.0 1012225